[[{"header":{"parameterUnit":"m.s-1","parameterCategory":1,"la1":30.2991,"la2":30.254,"lo1":-89.0895,"lo2":-89.0444,"dy":0.0017,"dx":0.0017,"nx":28,"ny":28,"refTime":"2024-07-31T03:00:00:Z","depth":0,"parameterNumber":2,"parameterNumberName":"U-component_of_WINDS"},"data":[0,0,0,0,0,0,0,0,0,0,0,0,0,0,0,0,0,0,0,0,0,0,0,0,0,0,0,0,0,0,0,0,0,0,0,0,0,0,0,0,0,0,0,0,0,0,0,0,0,0,0,0,0,0,0,0,0,0,2.7695,2.7695,0,2.7705,2.7705,2.7705,2.7631,2.7629,2.7627,2.7625,2.7638,2.764,2.7642,0,0,0,0,0,0,0,0,0,0,0,0,0,2.7612,2.7614,2.7695,2.7695,2.7695,2.7705,2.7705,2.7705,2.7631,2.7629,2.7626,2.7624,2.7637,2.7639,2.7642,0,0,0,0,0,0,0,0,0,0,0,0,0,2.7638,2.7614,2.7695,2.7659,2.7656,2.7705,2.7705,2.7705,2.7632,2.7629,2.7625,2.7623,2.7636,2.7639,2.7643,2.7727,0,0,2.7653,2.7655,0,0,0,0,0,0,0,0,2.7636,2.7641,2.7665,2.7662,2.7659,2.7663,2.768,2.7713,2.7633,2.7641,2.7625,2.7621,2.7649,2.7651,2.766,2.7727,2.7728,2.7653,2.7656,2.7657,2.7658,0,0,0,0,0,0,0,2.7634,2.764,2.7699,2.7665,2.7661,2.7643,2.7643,2.7686,2.7663,2.764,2.7635,2.7637,2.7647,2.7657,2.766,2.7728,2.7653,2.7656,2.7659,2.766,2.7861,2.7864,0,0,0,0,0,0,2.7637,2.7639,2.7699,2.7699,2.7639,2.7647,2.7647,2.7665,2.7662,2.7658,2.764,2.7633,2.7652,2.7656,2.766,2.7755,2.7657,2.766,2.7662,2.7858,2.7862,2.7865,0,0,0,0,0,0,2.7636,2.7643,2.7698,2.7668,2.7673,2.7652,2.7673,2.7667,2.7677,2.7661,2.7657,2.7654,2.765,2.7655,2.771,2.7755,2.7662,2.7665,2.7854,2.7859,2.7864,2.7949,0,0,0,0,0,0,2.7634,2.7643,2.7675,2.7669,2.7675,2.7748,2.7675,2.7669,2.7683,2.7675,2.7674,2.7671,2.7648,2.7705,2.7713,2.7758,2.7668,2.785,2.7856,2.7862,2.7942,2.7956,2.7968,0,0,0,0,0,2.7631,2.77,2.7677,2.7685,2.7715,2.7751,2.7755,2.7726,2.7687,2.7718,2.7708,2.7671,2.7749,2.7711,2.772,2.7766,2.7847,2.7854,2.7862,2.7936,2.7953,2.7968,0,0,0,0,0,0,2.7715,2.7699,2.7673,2.7743,2.7748,2.7738,2.7778,2.7746,2.7764,2.7756,2.7721,2.7721,2.7781,2.7779,2.7738,2.7845,2.7791,2.78,2.7844,2.7861,2.7874,2.7872,2.767,0,0,0,0,0,2.7741,2.7771,2.7756,2.7819,2.7823,2.78,2.7815,2.7792,2.7797,2.78,2.7793,2.78,2.7825,2.7843,2.7866,2.7941,2.7939,2.7977,2.7991,2.8001,2.801,2.8046,2.8062,2.789,2.789,2.7889,0,0,2.7796,2.7791,2.7813,2.7835,2.7837,2.7869,2.7803,2.784,2.7863,2.7806,2.7855,2.7851,2.7856,2.792,2.7949,2.7921,2.8057,2.8011,2.802,2.8022,2.8055,2.8072,2.8086,2.7895,2.7894,2.7893,0,0,2.7912,2.7912,2.7962,2.7965,2.7967,2.7951,2.7963,2.7957,2.7952,2.8001,2.7957,2.7985,2.803,2.8034,2.8043,2.8157,2.8122,2.8165,2.8234,2.827,2.8283,2.8295,2.8333,2.8347,2.8174,2.8174,2.8174,0,2.798,2.8026,2.7993,2.8031,2.8042,2.7989,2.8039,2.8043,2.8055,2.8062,2.8031,2.8084,2.8085,2.8148,2.8175,2.8184,2.8196,2.8165,2.8284,2.8295,2.8306,2.8342,2.8356,2.8179,2.8178,2.8178,2.8177,0,2.8108,2.814,2.818,2.8189,2.8204,2.8249,2.8222,2.8241,2.8216,2.8203,2.8253,2.8251,2.827,2.8284,2.8262,2.8343,2.8325,2.829,2.8234,2.8328,2.8361,2.8374,2.8186,2.8184,2.8183,2.8182,0,0,2.8278,2.8265,2.8281,2.8282,2.828,2.8305,2.8346,2.8364,2.838,2.8389,2.8421,2.8459,2.8425,2.8434,2.8412,2.8443,2.853,2.8403,2.8403,2.8425,2.8617,2.8642,2.8659,2.8508,2.851,2.8512,2.8615,0,2.8389,2.8457,2.8427,2.8499,2.8526,2.8476,2.8511,2.8513,2.8502,2.8524,2.8511,2.8537,2.8492,2.8496,2.8525,2.8513,2.8568,2.8506,2.8537,2.8538,2.8535,2.8676,2.8704,2.8802,2.8628,2.863,2.8632,0,2.8527,2.8539,2.8612,2.8602,2.8612,2.8645,2.8657,2.8679,2.868,2.8669,2.8678,2.8647,2.8685,2.863,2.8682,2.8641,2.8651,2.8647,2.865,2.8651,2.859,2.8679,2.8832,2.8846,2.8653,2.8651,2.865,0,2.864,2.8675,2.8722,2.8726,2.8716,2.8739,2.8736,2.8733,2.8745,2.8756,2.8762,2.8779,2.8787,2.88,2.8774,2.8737,2.8829,2.8773,2.882,2.882,2.8841,2.8839,2.8996,2.8851,2.8851,2.8851,2.885,0,2.8766,2.8813,2.8772,2.8801,2.8851,2.8816,2.8866,2.8858,2.8855,2.8881,2.884,2.8865,2.883,2.8852,2.8832,2.8876,2.8881,2.8873,2.8866,2.8875,2.8876,2.8881,2.8873,2.8854,2.8854,2.8853,2.8852,0,2.8901,2.8876,2.8924,2.8909,2.8906,2.8943,2.893,2.8956,2.894,2.8974,2.898,2.8956,2.8979,2.8954,2.8976,2.8963,2.9022,2.9007,2.9021,2.9016,2.9063,2.9059,2.9227,2.9246,2.9091,2.9093,2.9094,0,2.8982,2.9016,2.9003,2.9017,2.9015,2.9039,2.9049,2.9015,2.9028,2.9029,2.9055,2.9074,2.9087,2.9127,2.9111,2.9127,2.9111,2.9169,2.9113,2.912,2.9109,2.9107,2.9109,2.918,2.9182,2.9184,2.9185,0,2.9128,2.9112,2.9129,2.914,2.9153,2.9161,2.9165,2.9179,2.9144,2.916,2.9182,2.9192,2.9213,2.9232,2.9243,2.924,2.9206,2.9202,2.9214,2.9222,2.9228,2.9223,2.9049,2.9199,2.9197,2.9196,2.9195,2.9195,2.9236,2.9262,2.9257,2.9275,2.9274,2.9279,2.9301,2.9287,2.9304,2.9317,2.9297,2.9324,2.9321,2.9332,2.9332,2.9352,2.9328,2.9345,2.9349,2.9353,2.9359,2.9226,2.9355,2.9354,2.9354,2.9354,2.9353,0,2.9377,2.937,2.9387,2.9393,2.9407,2.9373,2.9376,2.939,2.9413,2.9413,2.9426,2.945,2.9468,2.9453,2.9467,2.9486,2.9471,2.9491,2.9488,2.9487,2.9382,2.9369,2.9502,2.9502,2.9502,2.9502,2.9502,2.9502,2.9452,2.9494,2.9478,2.9518,2.951,2.9535,2.9539,2.9542,2.9541,2.9569,2.9583,2.9572,2.9565,2.9578,2.9592,2.9587,2.9594,2.9619,2.9608,2.951,2.9495,2.9481,2.9469,2.9621,2.9621,2.9711,2.9712,2.9713]},{"header":{"parameterUnit":"m.s-1","parameterCategory":1,"la1":30.2991,"la2":30.254,"lo1":-89.0895,"lo2":-89.0444,"dy":0.0017,"dx":0.0017,"nx":28,"ny":28,"refTime":"2024-07-31T03:00:00:Z","depth":0,"parameterNumber":3,"parameterNumberName":"V-component_of_WINDS"},"data":[0,0,0,0,0,0,0,0,0,0,0,0,0,0,0,0,0,0,0,0,0,0,0,0,0,0,0,0,0,0,0,0,0,0,0,0,0,0,0,0,0,0,0,0,0,0,0,0,0,0,0,0,0,0,0,0,0,0,3.6367,3.6368,0,3.6431,3.6432,3.6433,3.6405,3.6404,3.6402,3.6401,3.6462,3.6465,3.6469,0,0,0,0,0,0,0,0,0,0,0,0,0,3.6215,3.6218,3.6367,3.6368,3.6368,3.6431,3.6432,3.6433,3.6405,3.6404,3.6402,3.64,3.6461,3.6465,3.6469,0,0,0,0,0,0,0,0,0,0,0,0,0,3.6281,3.6219,3.6367,3.6362,3.6363,3.6431,3.6432,3.6433,3.6406,3.6404,3.6401,3.6399,3.646,3.6465,3.6469,3.6544,0,0,3.6483,3.6485,0,0,0,0,0,0,0,0,3.6277,3.6286,3.6362,3.6363,3.6363,3.6408,3.6401,3.647,3.6406,3.6389,3.6401,3.6398,3.6446,3.6452,3.6469,3.6547,3.655,3.6484,3.6487,3.6489,3.649,0,0,0,0,0,0,0,3.6272,3.6283,3.6392,3.6363,3.6364,3.6356,3.6362,3.6414,3.643,3.6391,3.6389,3.6397,3.6446,3.6464,3.647,3.6551,3.6484,3.6488,3.6491,3.6493,3.6692,3.6694,0,0,0,0,0,0,3.6268,3.628,3.639,3.6394,3.6314,3.636,3.6368,3.6396,3.6429,3.6432,3.6399,3.6396,3.6457,3.6464,3.6472,3.6561,3.6489,3.6493,3.6496,3.669,3.6693,3.6695,0,0,0,0,0,0,3.6265,3.6279,3.6388,3.6336,3.635,3.6365,3.6397,3.6398,3.6417,3.6435,3.6438,3.6415,3.6456,3.6465,3.6526,3.6562,3.6495,3.6499,3.6687,3.6691,3.6694,3.6739,0,0,0,0,0,0,3.6261,3.6278,3.6308,3.6337,3.6353,3.6443,3.6399,3.6401,3.6425,3.6422,3.6451,3.6454,3.6455,3.652,3.6531,3.6568,3.6503,3.6683,3.6688,3.6693,3.6735,3.6744,3.6752,0,0,0,0,0,3.6256,3.6317,3.6309,3.6323,3.639,3.6445,3.6453,3.6454,3.6429,3.6458,3.6469,3.6453,3.6557,3.6526,3.6539,3.6577,3.6681,3.6687,3.6692,3.6731,3.6742,3.6752,0,0,0,0,0,0,3.629,3.6321,3.6312,3.6386,3.6413,3.644,3.6477,3.6467,3.65,3.6495,3.6494,3.65,3.6563,3.6576,3.6542,3.6651,3.6615,3.6623,3.664,3.6651,3.666,3.6654,3.6507,0,0,0,0,0,3.6306,3.6349,3.6373,3.6436,3.645,3.6461,3.6485,3.6483,3.6511,3.6522,3.6538,3.6564,3.6602,3.6627,3.6664,3.6737,3.6742,3.6769,3.6778,3.6785,3.6792,3.683,3.6842,3.6714,3.6714,3.6714,0,0,3.634,3.6362,3.6389,3.6443,3.6464,3.6507,3.6471,3.6518,3.6549,3.6528,3.6587,3.66,3.6628,3.6695,3.6726,3.6708,3.6829,3.6793,3.6798,3.6801,3.6837,3.6849,3.686,3.6718,3.6717,3.6717,0,0,3.6423,3.6445,3.6498,3.652,3.6552,3.6559,3.6572,3.6601,3.6609,3.6668,3.6653,3.6689,3.6756,3.6777,3.6796,3.6886,3.6871,3.6898,3.6943,3.698,3.699,3.6999,3.703,3.7041,3.6905,3.6905,3.6905,0,3.646,3.6525,3.6527,3.6575,3.6598,3.6583,3.6636,3.6656,3.6698,3.6714,3.6694,3.6777,3.6795,3.6866,3.6888,3.6905,3.6918,3.6894,3.6989,3.6998,3.7006,3.7035,3.7047,3.6908,3.6907,3.6907,3.6907,0,3.6568,3.6614,3.6653,3.6695,3.6723,3.6773,3.6781,3.6808,3.6804,3.6813,3.6872,3.6894,3.6934,3.695,3.6947,3.702,3.7008,3.6989,3.6953,3.7021,3.7048,3.706,3.6912,3.6911,3.691,3.6909,0,0,3.6674,3.6716,3.6731,3.6749,3.6783,3.6818,3.6867,3.6907,3.693,3.6959,3.6999,3.7055,3.7037,3.7059,3.7057,3.709,3.7158,3.7066,3.7067,3.7081,3.7238,3.7252,3.7265,3.7149,3.7151,3.7153,3.7235,0,3.6758,3.6845,3.6848,3.6927,3.6968,3.6953,3.6996,3.702,3.703,3.7064,3.7074,3.7113,3.7088,3.71,3.7132,3.7143,3.7189,3.7137,3.7184,3.7186,3.7176,3.7279,3.7294,3.737,3.7246,3.7248,3.7249,0,3.6868,3.6902,3.6985,3.7013,3.703,3.7068,3.7105,3.7139,3.7166,3.717,3.7195,3.7188,3.7235,3.7199,3.7264,3.7229,3.7248,3.7256,3.7259,3.7262,3.7221,3.7283,3.7395,3.7406,3.7266,3.7265,3.7264,0,3.6934,3.7001,3.7059,3.7075,3.711,3.7136,3.7152,3.7177,3.72,3.7232,3.7246,3.7283,3.7302,3.7329,3.7332,3.7305,3.7396,3.736,3.74,3.74,3.7418,3.7417,3.7533,3.7434,3.7433,3.7433,3.7433,0,3.7027,3.7078,3.7089,3.7125,3.7181,3.7183,3.7238,3.7251,3.7273,3.731,3.7299,3.7333,3.7335,3.737,3.7372,3.7424,3.7433,3.7437,3.7436,3.7437,3.7436,3.7448,3.7443,3.7436,3.7436,3.7435,3.7434,0,3.711,3.712,3.7182,3.721,3.7218,3.7258,3.728,3.7314,3.7322,3.7368,3.7379,3.7391,3.7431,3.7437,3.7484,3.7485,3.7547,3.7542,3.7539,3.7537,3.7576,3.7571,3.7702,3.7719,3.761,3.7611,3.7612,0,3.7168,3.7207,3.7239,3.7264,3.7281,3.732,3.7344,3.7347,3.7372,3.7406,3.7434,3.7474,3.7505,3.7569,3.7581,3.7617,3.7611,3.7655,3.7616,3.7615,3.761,3.7607,3.761,3.7661,3.7663,3.7664,3.7664,0,3.7269,3.7272,3.7308,3.7346,3.7376,3.7405,3.7433,3.7453,3.7459,3.7488,3.7529,3.7554,3.7601,3.764,3.7674,3.7688,3.7677,3.7677,3.7687,3.7687,3.7683,3.7684,3.7557,3.7673,3.7672,3.7672,3.7671,3.7671,3.734,3.7374,3.7402,3.7442,3.7463,3.7489,3.7521,3.7534,3.7569,3.7609,3.7608,3.7653,3.7678,3.7724,3.774,3.7774,3.7759,3.7775,3.7779,3.7782,3.7785,3.7679,3.778,3.778,3.778,3.778,3.778,0,3.7439,3.7456,3.7494,3.7533,3.7564,3.7553,3.7583,3.7609,3.7649,3.7674,3.7706,3.7752,3.7789,3.7805,3.784,3.7865,3.786,3.7874,3.7871,3.7874,3.7797,3.7784,3.7877,3.7877,3.7877,3.7877,3.7877,3.7877,3.7494,3.755,3.7556,3.7622,3.7638,3.7683,3.7701,3.7724,3.7744,3.7797,3.7829,3.7839,3.7859,3.7897,3.7929,3.7933,3.7946,3.7961,3.7962,3.789,3.788,3.787,3.7858,3.7964,3.7965,3.8036,3.8037,3.8037]}]]